Hourly Data Report for October 31, 2015

All times are specified in Local Standard Time (LST). Add 1 hour to adjust for Daylight Saving Time where and when it is observed.

GJOA HAVEN A
NUNAVUT

68°38'08.000" N
95°51'01.000" W
46.90 m
2302337
71597
YHK

Download Data

Hourly Data (October 2015)
Hourly Data Report for October 31, 2015
Temp Definition
°C
Dew Point Temp Definition
°C
Rel Hum Definition
%
Wind Dir Definition
10's deg

Wind Spd Definition
km/h
Visibility Definition
km
Stn Press Definition
kPa
Hmdx Definition


Wind Chill Definition


Weather Definition


TIME
00:00 Legend Double Dagger -17.5 -19.2 87 12 11 16.1 100.77   -25 LegendNANA
01:00 Legend Double Dagger -18.1 -19.9 86 14 15 16.1 100.79   -27 Snow
02:00 Legend Double Dagger -18.9 -20.7 86 13 13 16.1 100.78   -27 LegendNANA
03:00 Legend Double Dagger -19.2 -21.0 86 14 15 16.1 100.79   -28 Snow
04:00 Legend Double Dagger -19.6 -21.5 85 12 17 16.1 100.78   -29 LegendNANA
05:00 Legend Double Dagger -19.8 -21.7 85 12 15 16.1 100.77   -29 LegendNANA
06:00 Legend Double Dagger -20.2 -22.1 85 12 17 16.1 100.75   -30 LegendNANA
07:00 Legend Double Dagger -20.3 -22.2 85 12 17 16.1 100.78   -30 LegendNANA
08:00 Legend Double Dagger -20.4 -22.3 85 12 17 16.1 100.75   -30 LegendNANA
09:00 Legend Double Dagger -20.2 -22.1 85 12 15 16.1 100.74   -29 LegendNANA
10:00 Legend Double Dagger -19.2 -21.0 86 11 15 16.1 100.74   -28 LegendNANA
11:00 Legend Double Dagger -18.8 -20.6 86 10 17 16.1 100.73   -28 LegendNANA
12:00 Legend Double Dagger -18.3 -20.1 86 10 17 16.1 100.74   -28 LegendNANA
13:00 Legend Double Dagger -17.5 -19.2 87 12 17 16.1 100.72   -27 LegendNANA
14:00 Legend Double Dagger -16.7 -18.2 88 10 18 16.1 100.70   -26 LegendNANA
15:00 Legend Double Dagger -16.7 -18.2 88 11 21 16.1 100.70   -27 LegendNANA
16:00 Legend Double Dagger -16.0 -17.4 89 11 21 16.1 100.67   -26 LegendNANA
17:00 Legend Double Dagger -15.2 -16.6 89 11 17 14.5 100.65   -24 Snow
18:00 Legend Double Dagger -14.0 -15.3 90 11 17 16.1 100.66   -22 Snow
19:00 Legend Double Dagger -13.1 -14.3 91 12 18 9.7 100.61   -21 Snow
20:00 Legend Double Dagger -12.5 -13.5 92 13 17 11.3 100.59   -20 Snow
21:00 Legend Double Dagger -11.3 -12.4 92 13 21 16.1 100.59   -20 Snow
22:00 Legend Double Dagger -10.4 -11.3 93 14 17 16.1 100.58   -18 Snow
23:00 Legend Double Dagger -10.1 -11.0 93 16 18 6.4 100.55   -18 Snow

Notes on Data Quality.

Legend

  • E = Estimated
  • M = Missing
  • NA = Not Available
  • ‡ = Partner data that is not subject to review by the National Climate Archives
Date modified: